FW0314 Weather Reports


Display with metric or nautical units.
time (UTC)temp
F
wind
direction
speed
MPH
gust
MPH
rain 1hr
in
rain 24hr
in
rain mn
in
humidity
%
barometer
mb
20260506221525 56 28 2.0 5.0 0.00 0.00 0.00 83 1021.0
20260506221004 56 21 2.0 5.0 0.00 0.00 0.00 83 1021.0
20260506220504 56 19 1.0 4.0 0.00 0.00 0.00 82 1021.0
20260506220005 56 19 1.0 4.0 0.00 0.00 0.00 81 1021.0
20260506215504 56 26 1.0 4.0 0.00 0.00 0.00 81 1021.0
20260506215005 56 43 2.0 4.0 0.00 0.00 0.00 80 1021.1
20260506214525 57 197 1.0 4.0 0.00 0.00 0.00 78 1021.0
20260506214004 57 201 1.0 3.0 0.00 0.00 0.00 77 1021.1
20260506213504 57 216 0.0 4.0 0.00 0.00 0.00 76 1021.1
20260506213025 57 152 1.0 4.0 0.00 0.00 0.00 75 1021.0
20260506212504 57 129 1.0 4.0 0.00 0.00 0.00 76 1021.1
20260506212004 57 122 1.0 4.0 0.00 0.00 0.00 76 1020.9
20260506211504 57 113 1.0 4.0 0.00 0.00 0.00 76 1021.0
20260506211004 57 113 1.0 3.0 0.00 0.00 0.00 76 1021.1
20260506210504 57 112 1.0 3.0 0.00 0.00 0.00 77 1021.1
20260506210004 57 111 1.0 3.0 0.00 0.00 0.00 77 1021.1
20260506205504 57 132 1.0 7.0 0.00 0.00 0.00 77 1021.1
20260506205004 57 166 1.0 7.0 0.00 0.00 0.00 77 1021.1
20260506204504 56 181 1.0 7.0 0.00 0.00 0.00 78 1021.1
20260506204005 56 145 2.0 7.0 0.00 0.00 0.00 78 1021.0
20260506203504 56 134 2.0 7.0 0.00 0.00 0.00 77 1021.0
20260506203025 56 144 1.0 5.0 0.00 0.00 0.00 78 1021.0
20260506202525 56 134 1.0 5.0 0.00 0.00 0.00 78 1020.9
20260506202004 56 138 1.0 5.0 0.00 0.00 0.00 78 1021.0
20260506201504 56 166 1.0 5.0 0.00 0.00 0.00 80 1020.8
20260506201004 56 147 1.0 7.0 0.00 0.00 0.00 80 1020.8
20260506200525 55 149 2.0 7.0 0.00 0.00 0.00 79 1020.8
20260506200004 55 171 1.0 7.0 0.00 0.00 0.00 80 1020.8
20260506195504 55 164 1.0 7.0 0.00 0.00 0.00 80 1020.8
20260506195004 55 166 2.0 7.0 0.00 0.00 0.00 80 1020.8
20260506194525 55 162 2.0 7.0 0.00 0.00 0.00 80 1020.9
20260506194025 55 160 2.0 7.0 0.00 0.00 0.00 81 1020.8
20260506193504 55 133 2.0 7.0 0.00 0.00 0.00 82 1020.7
20260506193004 55 131 2.0 7.0 0.00 0.00 0.00 81 1020.7
20260506192504 55 158 2.0 7.0 0.00 0.00 0.00 82 1020.7
20260506192025 55 151 2.0 8.0 0.00 0.00 0.00 82 1020.6
20260506191504 54 147 2.0 8.0 0.00 0.00 0.00 83 1020.7
20260506191004 54 158 2.0 8.0 0.00 0.00 0.00 83 1020.7
20260506190525 55 162 1.0 8.0 0.00 0.00 0.00 82 1020.6
20260506190005 55 159 1.0 6.0 0.00 0.00 0.00 83 1020.6
20260506185504 55 149 1.0 6.0 0.00 0.00 0.00 83 1020.5
20260506185004 55 146 1.0 6.0 0.00 0.00 0.00 83 1020.4
20260506184525 55 153 2.0 6.0 0.00 0.00 0.00 83 1020.5
20260506184004 55 183 2.0 8.0 0.00 0.00 0.00 83 1020.5
20260506183504 55 178 2.0 8.0 0.00 0.00 0.00 83 1020.5
20260506183005 55 147 2.0 8.0 0.00 0.00 0.00 83 1020.6
20260506182504 55 166 3.0 8.0 0.00 0.00 0.00 83 1020.5
20260506182004 55 165 2.0 8.0 0.00 0.00 0.00 82 1020.4
20260506181525 55 151 2.0 6.0 0.00 0.00 0.00 82 1020.4
20260506181025 55 176 1.0 7.0 0.00 0.00 0.00 83 1020.4
20260506180504 55 159 1.0 7.0 0.00 0.00 0.00 84 1020.3
20260506180005 55 132 2.0 7.0 0.00 0.00 0.00 84 1020.4
20260506175504 54 143 2.0 7.0 0.00 0.00 0.00 84 1020.4
20260506175004 54 141 2.0 7.0 0.00 0.00 0.00 85 1020.4
20260506174504 54 131 2.0 7.0 0.00 0.00 0.00 86 1020.5
20260506174004 54 153 2.0 7.0 0.00 0.00 0.00 86 1020.4
20260506173504 54 191 2.0 7.0 0.00 0.00 0.00 86 1020.3
20260506173004 54 200 2.0 7.0 0.00 0.00 0.00 86 1020.1
20260506172504 54 168 1.0 5.0 0.00 0.00 0.00 86 1019.9
20260506172025 54 182 1.0 4.0 0.00 0.00 0.00 86 1019.9
20260506171504 54 200 1.0 4.0 0.00 0.00 0.00 86 1020.1
20260506171004 54 196 0.0 5.0 0.00 0.00 0.00 86 1020.0
20260506170525 54 194 1.0 6.0 0.00 0.00 0.00 86 1020.1
20260506170025 54 176 1.0 6.0 0.00 0.00 0.00 86 1020.2
20260506165525 54 160 1.0 6.0 0.00 0.00 0.00 86 1020.3
20260506165025 54 167 1.0 6.0 0.00 0.00 0.00 85 1020.2
20260506164504 54 203 1.0 6.0 0.00 0.00 0.00 86 1020.1
20260506164004 54 211 1.0 6.0 0.00 0.00 0.00 85 1020.1
20260506163504 54 244 1.0 6.0 0.00 0.00 0.00 86 1020.1
20260506163004 54 242 1.0 5.0 0.00 0.00 0.00 86 1020.2
20260506162504 54 162 1.0 5.0 0.00 0.00 0.00 87 1020.3
20260506162004 54 165 1.0 5.0 0.00 0.00 0.00 87 1020.1
20260506161504 54 178 1.0 8.0 0.00 0.00 0.00 87 1020.2
20260506161025 53 194 1.0 8.0 0.00 0.00 0.00 88 1020.1
20260506160504 53 237 1.0 8.0 0.00 0.00 0.00 88 1020.0
20260506160004 53 216 2.0 8.0 0.00 0.00 0.00 88 1019.9
20260506155504 53 192 2.0 8.0 0.00 0.00 0.00 88 1019.9
20260506155004 53 165 2.0 8.0 0.00 0.00 0.00 89 1019.7
20260506154504 53 152 2.0 8.0 0.00 0.00 0.00 89 1019.5
20260506154004 53 156 2.0 7.0 0.00 0.00 0.00 89 1019.4
20260506153504 53 171 2.0 7.0 0.00 0.00 0.00 90 1019.5
20260506153004 53 175 2.0 6.0 0.00 0.00 0.00 90 1019.5
20260506152504 53 151 2.0 6.0 0.00 0.00 0.00 90 1019.6
20260506152025 52 146 2.0 6.0 0.00 0.00 0.00 90 1019.5
20260506151525 52 163 1.0 6.0 0.00 0.00 0.00 91 1019.6
20260506151004 52 184 0.0 6.0 0.00 0.00 0.00 91 1019.6
20260506150504 52 169 1.0 7.0 0.00 0.00 0.00 91 1019.7
20260506150025 52 163 1.0 7.0 0.00 0.00 0.00 91 1019.6
20260506145504 52 173 2.0 7.0 0.00 0.00 0.00 91 1019.8
20260506145003 52 192 1.0 7.0 0.00 0.00 0.00 91 1019.9
20260506144504 52 184 1.0 7.0 0.00 0.00 0.00 91 1019.9
20260506144004 52 182 1.0 7.0 0.00 0.00 0.00 91 1019.8
20260506143504 52 164 1.0 7.0 0.00 0.00 0.00 91 1019.6
20260506143004 52 139 1.0 4.0 0.00 0.00 0.00 91 1019.3
20260506142504 52 135 1.0 5.0 0.00 0.00 0.00 91 1019.3
20260506142004 52 147 2.0 5.0 0.00 0.00 0.00 91 1019.5
20260506141504 52 161 2.0 5.0 0.00 0.00 0.00 91 1019.6
20260506141025 52 162 1.0 5.0 0.00 0.00 0.00 91 1019.6
20260506140504 52 155 1.0 5.0 0.00 0.00 0.00 90 1019.6
20260506140004 52 142 1.0 5.0 0.00 0.00 0.00 90 1019.6
20260506135503 52 135 1.0 5.0 0.00 0.00 0.00 90 1019.5
20260506135003 52 141 1.0 5.0 0.00 0.00 0.00 90 1019.3
20260506134504 52 145 1.0 5.0 0.00 0.00 0.00 90 1019.2
20260506134003 52 150 0.0 4.0 0.00 0.00 0.00 90 1019.3
20260506133504 52 157 1.0 4.0 0.00 0.00 0.00 90 1019.4
20260506133004 52 175 1.0 4.0 0.00 0.00 0.00 90 1019.3
20260506132503 52 217 0.0 4.0 0.00 0.00 0.00 90 1019.3
20260506132003 52 205 1.0 4.0 0.00 0.00 0.00 90 1019.6
20260506131504 52 181 1.0 4.0 0.00 0.00 0.00 89 1019.4
20260506131003 52 195 1.0 4.0 0.00 0.00 0.00 89 1019.3
20260506130504 52 227 1.0 3.0 0.00 0.00 0.00 89 1019.3
20260506130004 52 227 1.0 5.0 0.00 0.00 0.00 89 1019.2
20260506125503 52 227 0.0 7.0 0.00 0.00 0.00 89 1019.3
20260506125025 52 217 1.0 7.0 0.00 0.00 0.00 89 1019.2
20260506124504 52 189 1.0 7.0 0.00 0.00 0.00 90 1019.0
20260506124024 52 170 2.0 7.0 0.00 0.00 0.00 90 1018.9
20260506123503 52 156 1.0 7.0 0.00 0.00 0.00 90 1019.0
20260506123003 52 143 1.0 7.0 0.00 0.00 0.00 90 1018.7
20260506122525 52 147 1.0 6.0 0.00 0.00 0.00 90 1018.6
20260506122003 52 141 1.0 6.0 0.00 0.00 0.00 90 1018.8
20260506121525 52 145 1.0 6.0 0.00 0.00 0.00 91 1018.8
20260506121003 52 159 1.0 6.0 0.00 0.00 0.00 91 1018.8
20260506120503 52 157 1.0 2.0 0.00 0.00 0.00 91 1018.8
20260506120004 52 157 0.0 2.0 0.00 0.00 0.00 91 1018.7
20260506115503 52 157 0.0 2.0 0.00 0.00 0.00 91 1018.8
20260506115004 52 157 0.0 6.0 0.00 0.00 0.00 92 1018.7
20260506114504 52 157 0.0 6.0 0.00 0.00 0.00 92 1018.7
20260506114004 52 151 0.0 6.0 0.00 0.00 0.00 92 1018.7
20260506113503 52 149 1.0 6.0 0.00 0.00 0.00 92 1018.6
20260506113003 51 161 0.0 4.0 0.00 0.00 0.00 92 1018.5
20260506112503 51 160 0.0 4.0 0.00 0.00 0.00 92 1018.5
20260506112024 51 152 1.0 4.0 0.00 0.00 0.00 92 1018.6
20260506111503 51 154 1.0 4.0 0.00 0.00 0.00 92 1018.5
20260506111003 51 141 1.0 4.0 0.00 0.00 0.00 92 1018.4
20260506110503 51 129 1.0 4.0 0.00 0.00 0.00 92 1018.4
20260506110003 51 122 1.0 3.0 0.00 0.00 0.00 92 1018.3
20260506105504 51 112 1.0 3.0 0.00 0.00 0.00 92 1018.2
20260506105003 51 101 1.0 2.0 0.00 0.00 0.00 92 1018.1
20260506104504 51 101 0.0 2.0 0.00 0.00 0.00 92 1018.0
20260506104024 51 101 0.0 2.0 0.00 0.00 0.00 92 1018.0
20260506103524 50 101 0.0 1.0 0.00 0.00 0.00 92 1018.0
20260506103003 50 101 0.0 1.0 0.00 0.00 0.00 92 1018.0
20260506102503 50 101 0.0 1.0 0.00 0.00 0.00 92 1017.9
20260506102024 50 101 0.0 1.0 0.00 0.00 0.00 92 1017.9
20260506101503 50 101 0.0 1.0 0.00 0.00 0.00 92 1018.0
20260506101004 50 101 0.0 1.0 0.00 0.00 0.00 92 1017.9
20260506100503 50 101 0.0 1.0 0.00 0.00 0.00 92 1018.0
20260506100004 50 0 0.0 0.0 0.00 0.00 0.00 92 1017.9
20260506095524 50 0 0.0 0.0 0.00 0.00 0.00 92 1017.9
20260506095003 50 0 0.0 0.0 0.00 0.00 0.00 92 1017.9
20260506094503 50 0 0.0 1.0 0.00 0.00 0.00 92 1017.7
20260506094003 49 0 0.0 1.0 0.00 0.00 0.00 91 1017.7
20260506093503 50 0 0.0 1.0 0.00 0.00 0.00 91 1017.6
20260506093003 50 101 0.0 1.0 0.00 0.00 0.00 91 1017.6
20260506092503 50 101 0.0 1.0 0.00 0.00 0.00 91 1017.6
20260506092003 50 0 0.0 1.0 0.00 0.00 0.00 91 1017.6
20260506091503 50 101 0.0 1.0 0.00 0.00 0.00 91 1017.5
20260506091024 50 101 0.0 1.0 0.00 0.00 0.00 91 1017.5
20260506090524 50 0 0.0 1.0 0.00 0.00 0.00 91 1017.6
20260506090024 50 0 0.0 1.0 0.00 0.00 0.00 91 1017.6
20260506085505 50 101 0.0 1.0 0.00 0.00 0.00 91 1017.5
20260506085005 50 101 0.0 1.0 0.00 0.00 0.00 91 1017.5
20260506084505 50 101 0.0 1.0 0.00 0.00 0.00 91 1017.5
20260506084005 50 101 0.0 1.0 0.00 0.00 0.00 91 1017.4
20260506083505 50 101 0.0 1.0 0.00 0.00 0.00 91 1017.4
20260506083005 50 101 0.0 1.0 0.00 0.00 0.00 91 1017.3
20260506082505 50 101 0.0 1.0 0.00 0.00 0.00 90 1017.3
20260506082026 50 101 0.0 2.0 0.00 0.00 0.00 91 1017.3
20260506081505 50 0 0.0 2.0 0.00 0.00 0.00 91 1017.1
20260506081026 50 101 0.0 2.0 0.00 0.00 0.00 90 1017.0
20260506080505 51 101 0.0 2.0 0.00 0.00 0.00 90 1017.0
20260506073505 51 101 0.0 2.0 0.00 0.00 0.00 90 1016.9
20260506073005 51 101 1.0 2.0 0.00 0.00 0.00 90 1016.9
20260506072505 51 101 1.0 2.0 0.00 0.00 0.00 90 1017.0
20260506072005 51 101 0.0 2.0 0.00 0.00 0.00 90 1016.9
20260506071505 51 101 0.0 2.0 0.00 0.00 0.00 90 1016.9
20260506071026 51 101 0.0 3.0 0.00 0.00 0.00 90 1016.9
20260506070505 51 101 0.0 3.0 0.00 0.00 0.00 89 1016.8
20260506062505 52 105 1.0 3.0 0.00 0.00 0.00 89 1016.6
20260506062005 52 104 1.0 3.0 0.00 0.00 0.00 88 1016.6
20260506061505 52 87 1.0 4.0 0.00 0.00 0.00 88 1016.6
20260506061005 52 68 1.0 4.0 0.00 0.00 0.00 88 1016.6
20260506060505 52 48 1.0 5.0 0.00 0.00 0.00 88 1016.6
20260506051005 54 184 0.0 2.0 0.00 0.00 0.00 86 1016.0
20260506050505 55 184 0.0 2.0 0.00 0.00 0.00 85 1015.9
20260506045005 55 184 0.0 2.0 0.00 0.00 0.00 85 1015.7
20260506044526 55 184 0.0 2.0 0.00 0.00 0.00 84 1015.7
20260506044005 56 184 0.0 1.0 0.00 0.00 0.00 84 1015.7
20260506043526 56 0 0.0 0.0 0.00 0.00 0.00 84 1015.7
20260506043005 56 0 0.0 0.0 0.00 0.00 0.00 84 1015.5
20260506042505 56 0 0.0 0.0 0.00 0.00 0.00 83 1015.6
20260506042005 57 0 0.0 0.0 0.00 0.00 0.00 83 1015.6
20260506041505 57 0 0.0 0.0 0.00 0.00 0.00 82 1015.6
20260506041026 57 0 0.0 0.0 0.00 0.00 0.00 82 1015.5
20260506040505 57 0 0.0 0.0 0.00 0.00 0.00 81 1015.5
20260506040005 58 0 0.0 0.0 0.00 0.00 0.00 81 1015.6
20260506035505 58 0 0.0 2.0 0.00 0.00 0.00 80 1015.5
20260506035026 58 0 0.0 2.0 0.00 0.00 0.00 80 1015.5
20260506034505 59 184 0.0 2.0 0.00 0.00 0.00 79 1015.5
20260506034026 59 184 0.0 2.0 0.00 0.00 0.00 79 1015.4
20260506033505 59 184 0.0 2.0 0.00 0.00 0.00 78 1015.4
20260506033005 60 184 1.0 2.0 0.00 0.00 0.00 77 1015.3
20260506032505 60 184 1.0 2.0 0.00 0.00 0.00 76 1015.3
20260506032004 61 184 0.0 2.0 0.00 0.00 0.00 76 1015.4
20260506031504 61 184 0.0 4.0 0.00 0.00 0.00 76 1015.3
20260506031005 62 184 0.0 4.0 0.00 0.00 0.00 75 1015.2
20260506030526 62 185 0.0 4.0 0.00 0.00 0.00 75 1015.2
20260506030005 62 135 1.0 4.0 0.00 0.00 0.00 74 1015.2
20260506025505 62 116 2.0 4.0 0.00 0.00 0.00 74 1015.2
20260506025005 62 112 1.0 4.0 0.00 0.00 0.00 74 1015.2
20260506024504 62 107 1.0 3.0 0.00 0.00 0.00 74 1015.1
20260506024005 62 107 1.0 3.0 0.00 0.00 0.00 74 1015.0
20260506023505 63 107 1.0 4.0 0.00 0.00 0.00 73 1015.1
20260506023004 63 116 1.0 4.0 0.00 0.00 0.00 73 1015.0
20260506022507 63 132 1.0 5.0 0.00 0.00 0.00 72 1015.1
20260506022005 63 129 2.0 5.0 0.00 0.00 0.00 72 1015.1
20260506021525 63 132 2.0 6.0 0.00 0.00 0.00 72 1015.0
20260506021005 63 136 2.0 6.0 0.00 0.00 0.00 72 1015.0
20260506020505 63 140 2.0 6.0 0.00 0.00 0.00 71 1015.0
20260506020004 64 136 2.0 6.0 0.00 0.00 0.00 71 1015.0
20260506015505 64 141 1.0 9.0 0.00 0.00 0.00 71 1015.0
20260506015005 64 160 2.0 9.0 0.00 0.00 0.00 71 1014.9
20260506014504 64 146 2.0 9.0 0.00 0.00 0.00 71 1015.0
20260506014004 64 141 2.0 9.0 0.00 0.00 0.00 71 1015.0
20260506013505 64 142 3.0 9.0 0.00 0.00 0.00 70 1015.0
20260506013005 64 134 2.0 7.0 0.00 0.00 0.00 70 1015.0
20260506012525 64 129 2.0 10.0 0.00 0.00 0.00 69 1015.0
20260506012005 64 129 2.0 10.0 0.00 0.00 0.00 69 1015.0
20260506011504 65 148 2.0 10.0 0.00 0.00 0.00 69 1015.0
20260506011004 65 169 2.0 10.0 0.00 0.00 0.00 69 1015.1
20260506010526 65 154 2.0 10.0 0.00 0.00 0.00 68 1015.0
20260506010005 65 125 2.0 9.0 0.00 0.00 0.00 69 1014.9
20260506005505 65 132 3.0 9.0 0.00 0.00 0.00 69 1014.9
20260506005004 65 131 3.0 9.0 0.00 0.00 0.00 68 1014.9
20260506004505 65 124 3.0 9.0 0.00 0.00 0.00 67 1015.0
20260506004005 66 128 2.0 9.0 0.00 0.00 0.00 67 1015.1
20260506003504 66 132 3.0 9.0 0.00 0.00 0.00 67 1015.1
20260506003004 65 126 4.0 9.0 0.00 0.00 0.00 67 1015.0
20260506002506 65 123 3.0 9.0 0.00 0.00 0.00 67 1014.9
20260506002004 66 125 3.0 8.0 0.00 0.00 0.00 66 1015.1
20260506001504 66 118 2.0 8.0 0.00 0.00 0.00 66 1015.1
20260506001004 66 116 2.0 8.0 0.00 0.00 0.00 66 1015.1
20260506000504 66 119 3.0 8.0 0.00 0.00 0.00 66 1015.1
20260506000026 66 120 3.0 8.0 0.00 0.00 0.00 66 1015.1
20260505235504 67 126 2.0 8.0 0.00 0.00 0.00 65 1015.2
20260505235004 67 125 2.0 7.0 0.00 0.00 0.00 65 1015.2
20260505234526 67 121 2.0 7.0 0.00 0.00 0.00 64 1015.5
20260505234004 67 125 2.0 7.0 0.00 0.00 0.00 65 1015.4
20260505233525 67 131 2.0 7.0 0.00 0.00 0.00 65 1015.3
20260505233004 68 129 2.0 6.0 0.00 0.00 0.00 62 1015.4
20260505232504 68 125 1.0 6.0 0.00 0.00 0.00 63 1015.5
20260505232004 69 121 1.0 6.0 0.00 0.00 0.00 62 1015.6
20260505231525 68 123 1.0 6.0 0.00 0.00 0.00 62 1015.7
20260505231004 69 121 1.0 6.0 0.00 0.00 0.00 60 1015.7
20260505230525 69 130 1.0 6.0 0.00 0.00 0.00 61 1015.6
20260505230004 69 182 1.0 6.0 0.00 0.00 0.00 61 1015.7
20260505225504 68 312 1.0 5.0 0.00 0.00 0.00 62 1015.7
20260505225004 67 360 2.0 5.0 0.00 0.00 0.00 63 1015.8
20260505224504 68 309 2.0 5.0 0.00 0.00 0.00 62 1015.8
20260505224004 67 252 2.0 5.0 0.00 0.00 0.00 64 1015.8
20260505223504 67 245 2.0 4.0 0.00 0.00 0.00 62 1015.8
20260505223004 67 261 2.0 4.0 0.00 0.00 0.00 63 1015.9
20260505222525 67 27 1.0 4.0 0.00 0.00 0.00 64 1015.9
20260505222004 66 19 1.0 6.0 0.00 0.00 0.00 64 1016.0